This is the latest recevied weather packets stored in our database for station/object DB0FN-10. If no packets are shown the sender has not sent any weather packets the latest 10 day(s).
| Time | Temp. | Humidity | Pressure | Rain* | Wind** | Luminosity | Snow |
|---|---|---|---|---|---|---|---|
| 1787844736 | 32.22° C | 36% | 1017.6 hPa | - | - | - | - |
| 1787843835 | 32.22° C | 35% | 1017.7 hPa | - | - | - | - |
| 1787842935 | 32.22° C | 39% | 1017.7 hPa | - | - | - | - |
| 1787842035 | 32.22° C | 37% | 1017.5 hPa | - | - | - | - |
| 1787841135 | 32.22° C | 37% | 1017.7 hPa | - | - | - | - |
| 1787840235 | 32.22° C | 40% | 1017.8 hPa | - | - | - | - |
| 1787839335 | 32.22° C | 39% | 1017.8 hPa | - | - | - | - |
| 1787838435 | 31.67° C | 38% | 1017.9 hPa | - | - | - | - |
| 1787837535 | 32.22° C | 39% | 1017.9 hPa | - | - | - | - |
| 1787836635 | 31.67° C | 38% | 1018 hPa | - | - | - | - |
| 1787835735 | 31.67° C | 40% | 1018.2 hPa | - | - | - | - |
| 1787834835 | 31.67° C | 40% | 1018.2 hPa | - | - | - | - |
| 1787833935 | 31.67° C | 43% | 1018.4 hPa | - | - | - | - |
| 1787833034 | 31.11° C | 42% | 1018.4 hPa | - | - | - | - |
| 1787832134 | 31.11° C | 42% | 1018.7 hPa | - | - | - | - |
| 1787831234 | 31.67° C | 41% | 1018.8 hPa | - | - | - | - |
| 1787830334 | 31.11° C | 43% | 1018.9 hPa | - | - | - | - |
| 1787829434 | 31.11° C | 44% | 1019.1 hPa | - | - | - | - |
| 1787828534 | 30.56° C | 45% | 1019.2 hPa | - | - | - | - |
| 1787827634 | 30.56° C | 43% | 1019.2 hPa | - | - | - | - |
| 1787826734 | 30.56° C | 43% | 1019.3 hPa | - | - | - | - |
| 1787825834 | 30° C | 41% | 1019.2 hPa | - | - | - | - |
| 1787824934 | 30° C | 46% | 1019.5 hPa | - | - | - | - |
| 1787824034 | 30° C | 46% | 1019.5 hPa | - | - | - | - |
| 1787823134 | 30° C | 51% | 1019.6 hPa | - | - | - | - |
* Rain since midnight (hover to see other rain measurements)
** Current wind speed in m/s (hover to see current wind gust speed)